Nancy Foster — WTER — position and weather

sailwx.info

Track history (hours):
 
Tides and Currents Weather Stations Pressure Air Temp Water Temp Dewpoint Dewpoint Depression Visibility Wind Speed Wind Dir Waves Ship Positions

Oceanographic research ship Nancy Foster (USA)

Detailed information on ship capabilities available from University of Delaware's Ocean Information Center.

Last reported at 2017-Aug-19 18:48 UTC. Time now 2017-Aug-20 03:48 UTC.
Position N 26°12' W 084°42'.

Type: Other ship. MMSI: 369912000.

Wind from 360 at 6 knots

Barometer 1016.8 mb
Air temperature 30.5 ° C
Water temperature 31.7 ° C

Date/timePositionNaut miles runAvg speedWind from/ knotsBaromVisibWave heightAir tempDewpointWater temp
2017-Aug-19 18:48N 26°12' W 084°42'0 0.0 360 / 61016.8 30.5 31.7
2017-Aug-19 17:49N 26°12' W 084°42'0 0.0 360 / 51016.9 30.3 32.1
2017-Aug-19 16:50N 26°12' W 084°42'0 0.0 330 / 61017.3 29.5 31.7
2017-Aug-19 15:51N 26°12' W 084°42'0 0.0 330 / 61017.2 29.6 31.0
2017-Aug-19 14:52N 26°12' W 084°42'0 0.0 330 / 41016.8 29.2 30.4
2017-Aug-19 13:53N 26°12' W 084°42'0 0.0 300 / 21016.6 30.0 30.4
2017-Aug-19 12:53N 26°12' W 084°42'0 0.0 330 / 41017.0 28.9 30.1
2017-Aug-19 11:54N 26°12' W 084°42'5 5.5 350 / 41016.3 28.9 30.1
2017-Aug-19 10:55N 26°12' W 084°36'8 8.2 240 / 21015.2 29.0 30.1
2017-Aug-19 09:56N 26°06' W 084°30'5 5.5 180 / 41015.3 29.2 30.5
2017-Aug-19 08:57N 26°06' W 084°24'0 0.0 170 / 61015.2 29.2 30.5
2017-Aug-19 07:58N 26°06' W 084°24'6 6.1 140 / 71015.2 29.2 30.5
2017-Aug-19 06:59N 26°00' W 084°24'24 3.0 110 / 61015.7 29.2 30.6
2017-Aug-18 22:48N 26°18' W 084°42'0 0.0 020 / 81016.3 28.9 30.7
2017-Aug-18 21:49N 26°18' W 084°42'0 0.0 020 / 71016.5 29.2 30.8
2017-Aug-18 20:50N 26°18' W 084°42'0 0.0 350 / 81016.9 29.2 30.9
2017-Aug-18 19:51N 26°18' W 084°42'0 0.0 330 / 61017.2 29.2 30.8
2017-Aug-18 18:52N 26°18' W 084°42'0 0.0 360 / 21017.9 29.1 30.9
2017-Aug-18 17:53N 26°18' W 084°42'0 0.0 340 / 51018.4 28.8 30.6
2017-Aug-18 16:54N 26°18' W 084°42'0 0.0 060 / 21017.9 28.4 30.5
2017-Aug-18 15:55N 26°18' W 084°42'0 0.0 060 / 61018.0 26.7 30.5
2017-Aug-18 14:56N 26°18' W 084°42'0 0.0 050 / 31018.2 26.0 30.5
2017-Aug-18 13:56N 26°18' W 084°42'0 0.0 280 / 141018.7 25.6 30.6
2017-Aug-18 12:57N 26°18' W 084°42'8 0.7 130 / 111017.8 29.1 30.6
2017-Aug-18 00:48N 26°12' W 084°36'8 4.1 080 / 61018.1 29.9 31.1
2017-Aug-17 22:50N 26°18' W 084°42'0 0.0 030 / 61018.3 30.5 31.2
2017-Aug-17 21:51N 26°18' W 084°42'0 0.0 030 / 71018.0 30.4 31.3
2017-Aug-17 20:52N 26°18' W 084°42'0 0.0 030 / 81018.2 30.2 31.2
2017-Aug-17 19:53N 26°18' W 084°42'0 0.0 050 / 61018.4 29.9 31.4
2017-Aug-17 18:54N 26°18' W 084°42'0 0.0 050 / 41019.2 30.6 31.3
2017-Aug-17 17:54N 26°18' W 084°42'0 0.0 040 / 81019.5 30.6 31.3
2017-Aug-17 16:55N 26°18' W 084°42'0 0.0 050 / 61019.6 30.5 31.2
2017-Aug-17 15:56N 26°18' W 084°42'0 0.0 050 / 61019.9 30.5 31.1
2017-Aug-17 14:57N 26°18' W 084°42'0 0.0 040 / 51019.8 30.2 31.0
2017-Aug-17 13:58N 26°18' W 084°42'5 5.5 060 / 71019.7 30.8 30.9
2017-Aug-17 12:59N 26°18' W 084°36'12 1.0 060 / 61019.5 29.9 30.6
2017-Aug-17 00:48N 26°06' W 084°36'5 2.7 080 / 91018.3 30.0 31.0
2017-Aug-16 22:50N 26°06' W 084°42'0 0.0 070 / 61018.6 30.4 31.3
2017-Aug-16 21:51N 26°06' W 084°42'0 0.0 060 / 81018.5 30.4 31.2
2017-Aug-16 20:52N 26°06' W 084°42'0 0.0 060 / 51018.8 32.0 31.2
2017-Aug-16 19:53N 26°06' W 084°42'0 0.0 060 / 71019.0 31.0 31.4
2017-Aug-16 18:54N 26°06' W 084°42'6 6.1 030 / 61019.1 31.1 31.2
2017-Aug-16 17:55N 26°12' W 084°42'0 0.0 050 / 71019.8 30.3 31.1
2017-Aug-16 16:56N 26°12' W 084°42'0 0.0 070 / 61020.3 30.6 31.1
2017-Aug-16 15:56N 26°12' W 084°42'0 0.0 060 / 41020.4 30.5 31.0
2017-Aug-16 14:57N 26°12' W 084°42'0 0.0 040 / 51020.4 30.8 30.7
2017-Aug-16 13:58N 26°12' W 084°42'0 0.0 060 / 31019.8 30.6 30.5
2017-Aug-16 12:59N 26°12' W 084°42'6 0.3 100 / 21019.4 31.7 30.5
2017-Aug-15 19:49N 26°18' W 084°42'0 0.0 120 / 31017.3 34.0 31.9
2017-Aug-15 18:50N 26°18' W 084°42'0 0.0 1017.6 34.3 31.8
2017-Aug-15 17:51N 26°18' W 084°42'0 0.0 130 / 21017.9 33.3 31.5
2017-Aug-15 16:51N 26°18' W 084°42'0 0.0 320 / 11018.1 31.1 31.1
2017-Aug-15 15:51N 26°18' W 084°42'0 0.0 180 / 11018.0 30.5 30.9
2017-Aug-15 14:51N 26°18' W 084°42'0 0.0 220 / 11017.6 29.9 30.6
2017-Aug-15 13:52N 26°18' W 084°42'0 0.0 180 / 31017.1 30.8 30.6
2017-Aug-15 12:52N 26°18' W 084°42'0 0.0 180 / 21017.1 30.0 30.5
2017-Aug-15 11:52N 26°18' W 084°42'0 0.0 170 / 21016.2 29.2 30.6
2017-Aug-15 10:54N 26°18' W 084°42'0 0.0 180 / 21015.8 29.2 30.5
2017-Aug-15 09:54N 26°18' W 084°42'6 6.0 170 / 51015.5 29.5 30.5
2017-Aug-15 08:54N 26°12' W 084°42'6 6.0 190 / 51015.0 29.3 30.6
2017-Aug-15 07:54N 26°18' W 084°42'6 6.0 190 / 51015.0 29.2 30.7
2017-Aug-15 06:54N 26°12' W 084°42'8 8.2 200 / 41015.7 29.3 30.7
2017-Aug-15 05:55N 26°06' W 084°36'6 6.0 180 / 31016.3 29.4 30.8
2017-Aug-15 04:55N 26°12' W 084°36'6 6.0 180 / 21016.6 29.5 30.8
2017-Aug-15 03:55N 26°18' W 084°36'0 0.0 160 / 31016.8 29.6 30.6
2017-Aug-15 02:55N 26°18' W 084°36'6 6.0 190 / 11016.6 29.7 30.8
2017-Aug-15 01:55N 26°12' W 084°36'6 6.0 180 / 31016.3 29.8 30.7
2017-Aug-15 00:55N 26°18' W 084°36'8 4.1 160 / 41016.1 29.8 30.8
2017-Aug-14 22:56N 26°24' W 084°42'6 3.0 190 / 51015.6 32.1 31.5
2017-Aug-14 20:56N 26°18' W 084°42'0 0.0 220 / 11015.8 31.1 31.5
2017-Aug-14 19:56N 26°18' W 084°42'6 6.1 180 / 11016.1 32.5 31.4
2017-Aug-14 18:57N 26°24' W 084°42'0 0.0 160 / 21016.5 31.3 31.7
2017-Aug-14 17:57N 26°24' W 084°42'0 0.0 220 / 11017.1 30.9 31.1
2017-Aug-14 16:57N 26°24' W 084°42'0 0.0 210 / 11017.1 30.9 31.0
2017-Aug-14 15:57N 26°24' W 084°42'0 0.0 140 / 31017.1 31.4 30.5
2017-Aug-14 14:58N 26°24' W 084°42'0 0.0 260 / 21017.0 29.3 30.5
2017-Aug-14 13:58N 26°24' W 084°42'0 0.0 220 / 31016.7 29.8 30.4
2017-Aug-14 12:59N 26°24' W 084°42'138 3.3 210 / 21016.2 29.8 30.5
2017-Aug-12 18:32N 27°42' W 082°33'2 9.3
2017-Aug-12 18:22N 27°43' W 082°32'3 9.4
2017-Aug-12 18:00N 27°46' W 082°31'4 8.1
2017-Aug-12 17:31N 27°47' W 082°36'2 3.6
2017-Aug-12 16:56N 27°46' W 082°38'0 0.0
2017-Aug-12 16:29N 27°46' W 082°38'0 0.0
2017-Aug-12 15:59N 27°46' W 082°38'0 0.0
2017-Aug-12 15:29N 27°46' W 082°38'0 0.0
2017-Aug-12 14:59N 27°46' W 082°38'0 0.0
2017-Aug-12 14:29N 27°46' W 082°38'0 0.0
2017-Aug-12 13:53N 27°46' W 082°38'0 0.0
2017-Aug-12 13:20N 27°46' W 082°38'0 0.0
2017-Aug-12 12:59N 27°46' W 082°38'0 0.0
2017-Aug-12 12:29N 27°46' W 082°38'0 0.0
2017-Aug-12 11:59N 27°46' W 082°38'0 0.0
2017-Aug-12 11:29N 27°46' W 082°38'0 0.0
2017-Aug-12 10:59N 27°46' W 082°38'0 0.0
2017-Aug-12 10:23N 27°46' W 082°38'0 0.0
2017-Aug-12 09:56N 27°46' W 082°38'0 0.0
2017-Aug-12 09:23N 27°46' W 082°38'0 0.0
2017-Aug-12 08:59N 27°46' W 082°38'0 0.0
2017-Aug-12 08:26N 27°46' W 082°38'0 0.0
2017-Aug-12 07:56N 27°46' W 082°38'0 0.0
2017-Aug-12 07:29N 27°46' W 082°38'0 0.0
2017-Aug-12 06:56N 27°46' W 082°38'0 0.0
2017-Aug-12 06:29N 27°46' W 082°38'0 0.0
2017-Aug-12 05:56N 27°46' W 082°38'0 0.0
2017-Aug-12 05:20N 27°46' W 082°38'0 0.0
2017-Aug-12 04:59N 27°46' W 082°38'0 0.0
2017-Aug-12 04:29N 27°46' W 082°38'0 0.0
2017-Aug-12 03:59N 27°46' W 082°38'0 0.0
2017-Aug-12 03:29N 27°46' W 082°38'0 0.0
2017-Aug-12 02:59N 27°46' W 082°38'0 0.0
2017-Aug-12 02:29N 27°46' W 082°38'0 0.0
2017-Aug-12 01:59N 27°46' W 082°38'0 0.0
2017-Aug-12 01:26N 27°46' W 082°38'0 0.0
2017-Aug-12 00:56N 27°46' W 082°38'0 0.0
2017-Aug-12 00:29N 27°46' W 082°38'0 0.0
2017-Aug-11 23:59N 27°46' W 082°38'0 0.0
2017-Aug-11 23:26N 27°46' W 082°38'0 0.0
2017-Aug-11 22:59N 27°46' W 082°38'0 0.0
2017-Aug-11 22:29N 27°46' W 082°38'0 0.0
2017-Aug-11 21:59N 27°46' W 082°38'0 0.0
2017-Aug-11 21:26N 27°46' W 082°38'0 0.0
2017-Aug-11 20:47N 27°46' W 082°38'0 0.0
2017-Aug-11 20:23N 27°46' W 082°38'0 0.0
2017-Aug-11 19:59N 27°46' W 082°38'0 0.0
2017-Aug-11 19:26N 27°46' W 082°38'0 0.0
2017-Aug-11 18:59N 27°46' W 082°38'0 0.0
2017-Aug-11 18:29N 27°46' W 082°38'0 0.0
2017-Aug-11 17:56N 27°46' W 082°38'0 0.0
2017-Aug-11 17:29N 27°46' W 082°38'0 0.0
2017-Aug-11 16:53N 27°46' W 082°38'0 0.0
2017-Aug-11 16:29N 27°46' W 082°38'0 0.0
2017-Aug-11 15:59N 27°46' W 082°38'0 0.0
2017-Aug-11 15:29N 27°46' W 082°38'0 0.0
2017-Aug-11 14:59N 27°46' W 082°38'0 0.0
2017-Aug-11 14:29N 27°46' W 082°38'0 0.0
2017-Aug-11 13:29N 27°46' W 082°38'0 0.0
2017-Aug-11 12:59N 27°46' W 082°38'0 0.0
2017-Aug-11 12:29N 27°46' W 082°38'0 0.0
2017-Aug-11 11:59N 27°46' W 082°38'0 0.0
2017-Aug-11 11:29N 27°46' W 082°38'0 0.0
2017-Aug-11 10:59N 27°46' W 082°38'0 0.0
2017-Aug-11 10:29N 27°46' W 082°38'0 0.0
2017-Aug-11 09:59N 27°46' W 082°38'0 0.0
2017-Aug-11 09:29N 27°46' W 082°38'0 0.0
2017-Aug-11 08:59N 27°46' W 082°38'0 0.0
2017-Aug-11 08:23N 27°46' W 082°38'0 0.0
2017-Aug-11 07:59N 27°46' W 082°38'0 0.0
2017-Aug-11 07:29N 27°46' W 082°38'0 0.0
2017-Aug-11 06:59N 27°46' W 082°38'0 0.0
2017-Aug-11 06:29N 27°46' W 082°38'0 0.0
2017-Aug-11 05:56N 27°46' W 082°38'0 0.0
2017-Aug-11 05:29N 27°46' W 082°38'0 0.0
2017-Aug-11 04:56N 27°46' W 082°38'0 0.0
2017-Aug-11 04:29N 27°46' W 082°38'0 0.0
2017-Aug-11 03:53N 27°46' W 082°38'0 0.0
2017-Aug-11 03:26N 27°46' W 082°38'0 0.0
2017-Aug-11 02:59N 27°46' W 082°38'0 0.0
2017-Aug-11 02:29N 27°46' W 082°38'0 0.0
2017-Aug-11 01:59N 27°46' W 082°38'0 0.0
2017-Aug-11 01:29N 27°46' W 082°38'0 0.0
2017-Aug-11 00:59N 27°46' W 082°38'0 0.0
2017-Aug-11 00:29N 27°46' W 082°38'0 0.0
2017-Aug-10 23:59N 27°46' W 082°38'0 0.0
2017-Aug-10 23:29N 27°46' W 082°38'0 0.0
2017-Aug-10 22:59N 27°46' W 082°38'0 0.0
2017-Aug-10 22:29N 27°46' W 082°38'0 0.0
2017-Aug-10 21:59N 27°46' W 082°38'0 0.0
2017-Aug-10 21:29N 27°46' W 082°38'0 0.0
2017-Aug-10 20:59N 27°46' W 082°38'0 0.0
2017-Aug-10 20:29N 27°46' W 082°38'0 0.0
2017-Aug-10 19:56N 27°46' W 082°38'0 0.0
2017-Aug-10 19:29N 27°46' W 082°38'0 0.0
2017-Aug-10 18:56N 27°46' W 082°38'0 0.0
2017-Aug-10 18:26N 27°46' W 082°38'0 0.0
2017-Aug-10 17:56N 27°46' W 082°38'0 0.0
2017-Aug-10 17:14N 27°46' W 082°38'0 0.0
2017-Aug-10 16:59N 27°46' W 082°38'0 0.0
2017-Aug-10 16:14N 27°46' W 082°38'0 0.0
2017-Aug-10 15:56N 27°46' W 082°38'0 0.0
2017-Aug-10 15:29N 27°46' W 082°38'0 0.0
2017-Aug-10 14:53N 27°46' W 082°38'0 0.0
2017-Aug-10 14:29N 27°46' W 082°38'0 0.0
2017-Aug-10 13:56N 27°46' W 082°38'0 0.0
2017-Aug-10 13:29N 27°46' W 082°38'0 0.0
2017-Aug-10 12:59N 27°46' W 082°38'0 0.0
2017-Aug-10 12:29N 27°46' W 082°38'  
Track history (hours):
 
Tides and Currents Weather Stations Pressure Air Temp Water Temp Dewpoint Dewpoint Depression Visibility Wind Speed Wind Dir Waves Ship Positions

Oceanographic research ship Nancy Foster (USA)

Detailed information on ship capabilities available from University of Delaware's Ocean Information Center.

Last reported at 2017-Aug-19 18:48 UTC. Time now 2017-Aug-20 03:48 UTC.
Position N 26°12' W 084°42'.

Type: Other ship. MMSI: 369912000.

Wind from 360 at 6 knots

Barometer 1016.8 mb
Air temperature 30.5 ° C
Water temperature 31.7 ° C

Date/timePositionNaut miles runAvg speedWind from/ knotsBaromVisibWave heightAir tempDewpointWater temp
2017-Aug-19 18:48N 26°12' W 084°42'0 0.0 360 / 61016.8 30.5 31.7
2017-Aug-19 17:49N 26°12' W 084°42'0 0.0 360 / 51016.9 30.3 32.1
2017-Aug-19 16:50N 26°12' W 084°42'0 0.0 330 / 61017.3 29.5 31.7
2017-Aug-19 15:51N 26°12' W 084°42'0 0.0 330 / 61017.2 29.6 31.0
2017-Aug-19 14:52N 26°12' W 084°42'0 0.0 330 / 41016.8 29.2 30.4
2017-Aug-19 13:53N 26°12' W 084°42'0 0.0 300 / 21016.6 30.0 30.4
2017-Aug-19 12:53N 26°12' W 084°42'0 0.0 330 / 41017.0 28.9 30.1
2017-Aug-19 11:54N 26°12' W 084°42'5 5.5 350 / 41016.3 28.9 30.1
2017-Aug-19 10:55N 26°12' W 084°36'8 8.2 240 / 21015.2 29.0 30.1
2017-Aug-19 09:56N 26°06' W 084°30'5 5.5 180 / 41015.3 29.2 30.5
2017-Aug-19 08:57N 26°06' W 084°24'0 0.0 170 / 61015.2 29.2 30.5
2017-Aug-19 07:58N 26°06' W 084°24'6 6.1 140 / 71015.2 29.2 30.5
2017-Aug-19 06:59N 26°00' W 084°24'24 3.0 110 / 61015.7 29.2 30.6
2017-Aug-18 22:48N 26°18' W 084°42'0 0.0 020 / 81016.3 28.9 30.7
2017-Aug-18 21:49N 26°18' W 084°42'0 0.0 020 / 71016.5 29.2 30.8
2017-Aug-18 20:50N 26°18' W 084°42'0 0.0 350 / 81016.9 29.2 30.9
2017-Aug-18 19:51N 26°18' W 084°42'0 0.0 330 / 61017.2 29.2 30.8
2017-Aug-18 18:52N 26°18' W 084°42'0 0.0 360 / 21017.9 29.1 30.9
2017-Aug-18 17:53N 26°18' W 084°42'0 0.0 340 / 51018.4 28.8 30.6
2017-Aug-18 16:54N 26°18' W 084°42'0 0.0 060 / 21017.9 28.4 30.5
2017-Aug-18 15:55N 26°18' W 084°42'0 0.0 060 / 61018.0 26.7 30.5
2017-Aug-18 14:56N 26°18' W 084°42'0 0.0 050 / 31018.2 26.0 30.5
2017-Aug-18 13:56N 26°18' W 084°42'0 0.0 280 / 141018.7 25.6 30.6
2017-Aug-18 12:57N 26°18' W 084°42'8 0.7 130 / 111017.8 29.1 30.6
2017-Aug-18 00:48N 26°12' W 084°36'8 4.1 080 / 61018.1 29.9 31.1
2017-Aug-17 22:50N 26°18' W 084°42'0 0.0 030 / 61018.3 30.5 31.2
2017-Aug-17 21:51N 26°18' W 084°42'0 0.0 030 / 71018.0 30.4 31.3
2017-Aug-17 20:52N 26°18' W 084°42'0 0.0 030 / 81018.2 30.2 31.2
2017-Aug-17 19:53N 26°18' W 084°42'0 0.0 050 / 61018.4 29.9 31.4
2017-Aug-17 18:54N 26°18' W 084°42'0 0.0 050 / 41019.2 30.6 31.3
2017-Aug-17 17:54N 26°18' W 084°42'0 0.0 040 / 81019.5 30.6 31.3
2017-Aug-17 16:55N 26°18' W 084°42'0 0.0 050 / 61019.6 30.5 31.2
2017-Aug-17 15:56N 26°18' W 084°42'0 0.0 050 / 61019.9 30.5 31.1
2017-Aug-17 14:57N 26°18' W 084°42'0 0.0 040 / 51019.8 30.2 31.0
2017-Aug-17 13:58N 26°18' W 084°42'5 5.5 060 / 71019.7 30.8 30.9
2017-Aug-17 12:59N 26°18' W 084°36'12 1.0 060 / 61019.5 29.9 30.6
2017-Aug-17 00:48N 26°06' W 084°36'5 2.7 080 / 91018.3 30.0 31.0
2017-Aug-16 22:50N 26°06' W 084°42'0 0.0 070 / 61018.6 30.4 31.3
2017-Aug-16 21:51N 26°06' W 084°42'0 0.0 060 / 81018.5 30.4 31.2
2017-Aug-16 20:52N 26°06' W 084°42'0 0.0 060 / 51018.8 32.0 31.2
2017-Aug-16 19:53N 26°06' W 084°42'0 0.0 060 / 71019.0 31.0 31.4
2017-Aug-16 18:54N 26°06' W 084°42'6 6.1 030 / 61019.1 31.1 31.2
2017-Aug-16 17:55N 26°12' W 084°42'0 0.0 050 / 71019.8 30.3 31.1
2017-Aug-16 16:56N 26°12' W 084°42'0 0.0 070 / 61020.3 30.6 31.1
2017-Aug-16 15:56N 26°12' W 084°42'0 0.0 060 / 41020.4 30.5 31.0
2017-Aug-16 14:57N 26°12' W 084°42'0 0.0 040 / 51020.4 30.8 30.7
2017-Aug-16 13:58N 26°12' W 084°42'0 0.0 060 / 31019.8 30.6 30.5
2017-Aug-16 12:59N 26°12' W 084°42'6 0.3 100 / 21019.4 31.7 30.5
2017-Aug-15 19:49N 26°18' W 084°42'0 0.0 120 / 31017.3 34.0 31.9
2017-Aug-15 18:50N 26°18' W 084°42'0 0.0 1017.6 34.3 31.8
2017-Aug-15 17:51N 26°18' W 084°42'0 0.0 130 / 21017.9 33.3 31.5
2017-Aug-15 16:51N 26°18' W 084°42'0 0.0 320 / 11018.1 31.1 31.1
2017-Aug-15 15:51N 26°18' W 084°42'0 0.0 180 / 11018.0 30.5 30.9
2017-Aug-15 14:51N 26°18' W 084°42'0 0.0 220 / 11017.6 29.9 30.6
2017-Aug-15 13:52N 26°18' W 084°42'0 0.0 180 / 31017.1 30.8 30.6
2017-Aug-15 12:52N 26°18' W 084°42'0 0.0 180 / 21017.1 30.0 30.5
2017-Aug-15 11:52N 26°18' W 084°42'0 0.0 170 / 21016.2 29.2 30.6
2017-Aug-15 10:54N 26°18' W 084°42'0 0.0 180 / 21015.8 29.2 30.5
2017-Aug-15 09:54N 26°18' W 084°42'6 6.0 170 / 51015.5 29.5 30.5
2017-Aug-15 08:54N 26°12' W 084°42'6 6.0 190 / 51015.0 29.3 30.6
2017-Aug-15 07:54N 26°18' W 084°42'6 6.0 190 / 51015.0 29.2 30.7
2017-Aug-15 06:54N 26°12' W 084°42'8 8.2 200 / 41015.7 29.3 30.7
2017-Aug-15 05:55N 26°06' W 084°36'6 6.0 180 / 31016.3 29.4 30.8
2017-Aug-15 04:55N 26°12' W 084°36'6 6.0 180 / 21016.6 29.5 30.8
2017-Aug-15 03:55N 26°18' W 084°36'0 0.0 160 / 31016.8 29.6 30.6
2017-Aug-15 02:55N 26°18' W 084°36'6 6.0 190 / 11016.6 29.7 30.8
2017-Aug-15 01:55N 26°12' W 084°36'6 6.0 180 / 31016.3 29.8 30.7
2017-Aug-15 00:55N 26°18' W 084°36'8 4.1 160 / 41016.1 29.8 30.8
2017-Aug-14 22:56N 26°24' W 084°42'6 3.0 190 / 51015.6 32.1 31.5
2017-Aug-14 20:56N 26°18' W 084°42'0 0.0 220 / 11015.8 31.1 31.5
2017-Aug-14 19:56N 26°18' W 084°42'6 6.1 180 / 11016.1 32.5 31.4
2017-Aug-14 18:57N 26°24' W 084°42'0 0.0 160 / 21016.5 31.3 31.7
2017-Aug-14 17:57N 26°24' W 084°42'0 0.0 220 / 11017.1 30.9 31.1
2017-Aug-14 16:57N 26°24' W 084°42'0 0.0 210 / 11017.1 30.9 31.0
2017-Aug-14 15:57N 26°24' W 084°42'0 0.0 140 / 31017.1 31.4 30.5
2017-Aug-14 14:58N 26°24' W 084°42'0 0.0 260 / 21017.0 29.3 30.5
2017-Aug-14 13:58N 26°24' W 084°42'0 0.0 220 / 31016.7 29.8 30.4
2017-Aug-14 12:59N 26°24' W 084°42'138 3.3 210 / 21016.2 29.8 30.5
2017-Aug-12 18:32N 27°42' W 082°33'2 9.3
2017-Aug-12 18:22N 27°43' W 082°32'3 9.4
2017-Aug-12 18:00N 27°46' W 082°31'4 8.1
2017-Aug-12 17:31N 27°47' W 082°36'2 3.6
2017-Aug-12 16:56N 27°46' W 082°38'0 0.0
2017-Aug-12 16:29N 27°46' W 082°38'0 0.0
2017-Aug-12 15:59N 27°46' W 082°38'0 0.0
2017-Aug-12 15:29N 27°46' W 082°38'0 0.0
2017-Aug-12 14:59N 27°46' W 082°38'0 0.0
2017-Aug-12 14:29N 27°46' W 082°38'0 0.0
2017-Aug-12 13:53N 27°46' W 082°38'0 0.0
2017-Aug-12 13:20N 27°46' W 082°38'0 0.0
2017-Aug-12 12:59N 27°46' W 082°38'0 0.0
2017-Aug-12 12:29N 27°46' W 082°38'0 0.0
2017-Aug-12 11:59N 27°46' W 082°38'0 0.0
2017-Aug-12 11:29N 27°46' W 082°38'0 0.0
2017-Aug-12 10:59N 27°46' W 082°38'0 0.0
2017-Aug-12 10:23N 27°46' W 082°38'0 0.0
2017-Aug-12 09:56N 27°46' W 082°38'0 0.0
2017-Aug-12 09:23N 27°46' W 082°38'0 0.0
2017-Aug-12 08:59N 27°46' W 082°38'0 0.0
2017-Aug-12 08:26N 27°46' W 082°38'0 0.0
2017-Aug-12 07:56N 27°46' W 082°38'0 0.0
2017-Aug-12 07:29N 27°46' W 082°38'0 0.0
2017-Aug-12 06:56N 27°46' W 082°38'0 0.0
2017-Aug-12 06:29N 27°46' W 082°38'0 0.0
2017-Aug-12 05:56N 27°46' W 082°38'0 0.0
2017-Aug-12 05:20N 27°46' W 082°38'0 0.0
2017-Aug-12 04:59N 27°46' W 082°38'0 0.0
2017-Aug-12 04:29N 27°46' W 082°38'0 0.0
2017-Aug-12 03:59N 27°46' W 082°38'0 0.0
2017-Aug-12 03:29N 27°46' W 082°38'0 0.0
2017-Aug-12 02:59N 27°46' W 082°38'0 0.0
2017-Aug-12 02:29N 27°46' W 082°38'0 0.0
2017-Aug-12 01:59N 27°46' W 082°38'0 0.0
2017-Aug-12 01:26N 27°46' W 082°38'0 0.0
2017-Aug-12 00:56N 27°46' W 082°38'0 0.0
2017-Aug-12 00:29N 27°46' W 082°38'0 0.0
2017-Aug-11 23:59N 27°46' W 082°38'0 0.0
2017-Aug-11 23:26N 27°46' W 082°38'0 0.0
2017-Aug-11 22:59N 27°46' W 082°38'0 0.0
2017-Aug-11 22:29N 27°46' W 082°38'0 0.0
2017-Aug-11 21:59N 27°46' W 082°38'0 0.0
2017-Aug-11 21:26N 27°46' W 082°38'0 0.0
2017-Aug-11 20:47N 27°46' W 082°38'0 0.0
2017-Aug-11 20:23N 27°46' W 082°38'0 0.0
2017-Aug-11 19:59N 27°46' W 082°38'0 0.0
2017-Aug-11 19:26N 27°46' W 082°38'0 0.0
2017-Aug-11 18:59N 27°46' W 082°38'0 0.0
2017-Aug-11 18:29N 27°46' W 082°38'0 0.0
2017-Aug-11 17:56N 27°46' W 082°38'0 0.0
2017-Aug-11 17:29N 27°46' W 082°38'0 0.0
2017-Aug-11 16:53N 27°46' W 082°38'0 0.0
2017-Aug-11 16:29N 27°46' W 082°38'0 0.0
2017-Aug-11 15:59N 27°46' W 082°38'0 0.0
2017-Aug-11 15:29N 27°46' W 082°38'0 0.0
2017-Aug-11 14:59N 27°46' W 082°38'0 0.0
2017-Aug-11 14:29N 27°46' W 082°38'0 0.0
2017-Aug-11 13:29N 27°46' W 082°38'0 0.0
2017-Aug-11 12:59N 27°46' W 082°38'0 0.0
2017-Aug-11 12:29N 27°46' W 082°38'0 0.0
2017-Aug-11 11:59N 27°46' W 082°38'0 0.0
2017-Aug-11 11:29N 27°46' W 082°38'0 0.0
2017-Aug-11 10:59N 27°46' W 082°38'0 0.0
2017-Aug-11 10:29N 27°46' W 082°38'0 0.0
2017-Aug-11 09:59N 27°46' W 082°38'0 0.0
2017-Aug-11 09:29N 27°46' W 082°38'0 0.0
2017-Aug-11 08:59N 27°46' W 082°38'0 0.0
2017-Aug-11 08:23N 27°46' W 082°38'0 0.0
2017-Aug-11 07:59N 27°46' W 082°38'0 0.0
2017-Aug-11 07:29N 27°46' W 082°38'0 0.0
2017-Aug-11 06:59N 27°46' W 082°38'0 0.0
2017-Aug-11 06:29N 27°46' W 082°38'0 0.0
2017-Aug-11 05:56N 27°46' W 082°38'0 0.0
2017-Aug-11 05:29N 27°46' W 082°38'0 0.0
2017-Aug-11 04:56N 27°46' W 082°38'0 0.0
2017-Aug-11 04:29N 27°46' W 082°38'0 0.0
2017-Aug-11 03:53N 27°46' W 082°38'0 0.0
2017-Aug-11 03:26N 27°46' W 082°38'0 0.0
2017-Aug-11 02:59N 27°46' W 082°38'0 0.0
2017-Aug-11 02:29N 27°46' W 082°38'0 0.0
2017-Aug-11 01:59N 27°46' W 082°38'0 0.0
2017-Aug-11 01:29N 27°46' W 082°38'0 0.0
2017-Aug-11 00:59N 27°46' W 082°38'0 0.0
2017-Aug-11 00:29N 27°46' W 082°38'0 0.0
2017-Aug-10 23:59N 27°46' W 082°38'0 0.0
2017-Aug-10 23:29N 27°46' W 082°38'0 0.0
2017-Aug-10 22:59N 27°46' W 082°38'0 0.0
2017-Aug-10 22:29N 27°46' W 082°38'0 0.0
2017-Aug-10 21:59N 27°46' W 082°38'0 0.0
2017-Aug-10 21:29N 27°46' W 082°38'0 0.0
2017-Aug-10 20:59N 27°46' W 082°38'0 0.0
2017-Aug-10 20:29N 27°46' W 082°38'0 0.0
2017-Aug-10 19:56N 27°46' W 082°38'0 0.0
2017-Aug-10 19:29N 27°46' W 082°38'0 0.0
2017-Aug-10 18:56N 27°46' W 082°38'0 0.0
2017-Aug-10 18:26N 27°46' W 082°38'0 0.0
2017-Aug-10 17:56N 27°46' W 082°38'0 0.0
2017-Aug-10 17:14N 27°46' W 082°38'0 0.0
2017-Aug-10 16:59N 27°46' W 082°38'0 0.0
2017-Aug-10 16:14N 27°46' W 082°38'0 0.0
2017-Aug-10 15:56N 27°46' W 082°38'0 0.0
2017-Aug-10 15:29N 27°46' W 082°38'0 0.0
2017-Aug-10 14:53N 27°46' W 082°38'0 0.0
2017-Aug-10 14:29N 27°46' W 082°38'0 0.0
2017-Aug-10 13:56N 27°46' W 082°38'0 0.0
2017-Aug-10 13:29N 27°46' W 082°38'0 0.0
2017-Aug-10 12:59N 27°46' W 082°38'0 0.0
2017-Aug-10 12:29N 27°46' W 082°38'  

Dump ship's entire track history